Temp
52 50 50 50 50 49 49 48 49 49 49 49 49 49 48 47 47 47 46 46 48 48
56 55 52 52 53 50 51 54 50 49 48 48 48 48 47 46 46 45 46 46 46 46
54 55 54 52 49 49 51 51 50 48 48 48 48 48 46 45 46 46 47 46 45 46
50 48 48 47 47 48 50 50 50 50 50 50 49 50 49 49 49 47 47 46 45 45
46 47 46 45 46 46 45 47 48 48 47 47 47 48 47 47 48 47 46 43 43 43
43 42 41 41 42 43 43 43 43 43 43 43 44 44 44 45 44 44 44 43 42 41
39 40 40 40 40 40 40 40 40 41 41 41 42 43 44 43 41 40 41 41 41 41
39 40 39 39 38 39 39 40 40 41 39 40 41 44 41 40 38 37 37 38 39 40
40 40 38 38 38 38 38 38 38 37 38 38 41 40 40 39 36 36 36 35 37 38
40 39 37 38 38 37 34 35 34 36 37 35 36 39 39 38 36 34 34 34 35 36
38 37 37 36 36 32 33 34 33 34 35 35 37 37 37 36 34 32 32 33 34 33
37 36 35 34 31 32 33 32 33 34 33 32 32 35 35 34 31 30 30 32 32 33
36 35 34 31 31 32 32 32 32 31 31 32 30 32 33 32 31 27 27 28 30 31
35 34 33 31 31 30 30 29 27 27 28 28 29 29 31 31 29 26 26 26 26 28
MSLP
1023.19 1023.33 1023.44 1023.42 1023.38 1023.10 1022.71 1022.48 1022.28 1022.23 1022.09 1021.91 1021.72 1021.48 1021.21 1021.18 1020.92 1020.71 1020.53 1020.30 1020.02 1019.77
1023.42 1023.50 1023.57 1023.45 1023.37 1022.90 1022.50 1022.11 1021.98 1021.94 1021.78 1021.53 1021.32 1021.04 1020.76 1020.70 1020.44 1020.18 1019.95 1019.68 1019.46 1019.27
1023.87 1023.83 1023.82 1023.94 1023.84 1023.61 1023.15 1022.96 1022.69 1022.47 1022.02 1021.59 1021.11 1020.76 1020.50 1020.20 1019.82 1019.57 1019.21 1018.95 1018.80 1018.56
1024.58 1024.49 1024.39 1024.44 1024.35 1024.06 1023.59 1023.32 1023.02 1022.62 1022.28 1021.95 1021.49 1020.94 1020.60 1020.22 1019.73 1019.36 1018.95 1018.50 1018.10 1017.63
1025.11 1025.03 1025.09 1025.07 1024.97 1024.65 1024.38 1023.97 1023.54 1023.08 1022.76 1022.37 1021.83 1021.22 1020.72 1020.17 1019.75 1019.12 1018.85 1018.76 1018.35 1018.12
1025.85 1025.83 1025.80 1025.67 1025.48 1025.11 1024.79 1024.42 1023.97 1023.57 1023.12 1022.60 1022.06 1021.46 1020.91 1020.22 1019.75 1019.40 1018.89 1018.30 1018.07 1017.65
1026.41 1026.29 1026.15 1025.92 1025.64 1025.34 1024.90 1024.53 1024.12 1023.68 1023.14 1022.63 1022.10 1021.50 1020.79 1020.30 1019.68 1019.23 1018.77 1018.32 1017.79 1017.30
1026.67 1026.48 1026.24 1025.95 1025.67 1025.35 1025.05 1024.67 1024.19 1023.64 1023.17 1022.77 1022.21 1021.55 1021.01 1020.50 1020.05 1019.46 1018.63 1017.99 1017.42 1016.79
1026.73 1026.57 1026.32 1026.05 1025.72 1025.39 1025.05 1024.66 1024.09 1023.60 1023.13 1022.48 1021.99 1021.62 1021.16 1020.72 1019.96 1019.26 1018.50 1017.56 1016.76 1016.15
1026.78 1026.66 1026.42 1026.10 1025.78 1025.41 1025.02 1024.62 1024.27 1023.57 1022.90 1022.42 1022.04 1021.48 1021.04 1020.47 1019.74 1018.95 1018.24 1017.43 1016.57 1015.75
1026.87 1026.70 1026.46 1026.23 1025.83 1025.48 1025.23 1024.78 1024.10 1023.53 1023.08 1022.51 1021.99 1021.45 1020.83 1020.11 1019.47 1018.68 1018.00 1017.16 1016.30 1015.44
1026.97 1026.79 1026.59 1026.30 1026.10 1025.81 1025.26 1024.71 1024.20 1023.71 1023.25 1022.67 1022.00 1021.36 1020.74 1019.94 1019.00 1018.22 1017.34 1016.57 1015.72 1014.78
1027.11 1026.93 1026.70 1026.57 1026.27 1025.92 1025.47 1024.82 1024.46 1023.88 1023.43 1022.79 1022.03 1021.39 1020.62 1019.79 1018.78 1017.79 1016.82 1015.91 1014.96 1014.27
1027.26 1027.06 1026.80 1026.73 1026.41 1026.01 1025.44 1025.03 1024.50 1023.91 1023.17 1022.58 1022.04 1021.11 1020.40 1019.57 1018.50 1017.64 1016.39 1015.23 1013.91 1012.79
Wind_Speed
4 2 1 3 4 5 4 2 3 4 5 6 6 6 6 4 5 5 5 7 6 6
3 4 4 5 6 4 4 2 3 6 7 7 7 7 7 5 7 6 7 8 8 7
6 9 9 10 12 13 11 11 10 9 8 8 7 7 7 7 8 9 9 8 8 9
10 9 8 8 8 9 11 11 12 11 11 11 10 9 9 9 9 10 11 10 11 13
10 11 11 11 11 10 10 11 12 12 12 13 12 12 12 13 12 11 12 11 11 15
9 8 7 7 8 10 10 11 10 11 12 13 12 13 13 12 11 11 13 12 11 11
7 7 7 7 6 7 7 7 8 10 11 11 13 13 12 14 14 13 11 10 10 11
6 6 6 7 7 7 7 8 9 12 8 11 11 10 14 12 12 15 15 14 13 12
6 6 7 7 7 6 8 8 11 7 12 13 8 16 18 21 16 15 15 14 14 12
6 7 6 8 8 9 7 9 9 13 13 8 12 19 22 24 14 15 14 16 13 14
7 6 7 8 9 7 6 11 12 11 13 13 12 23 25 23 16 14 15 16 16 16
7 7 7 10 7 8 11 10 12 12 15 15 15 23 26 25 15 14 16 15 17 17
6 7 8 6 10 9 11 11 11 14 14 17 14 24 28 26 14 16 13 15 17 26
7 8 5 8 7 10 9 11 12 13 12 13 15 17 28 31 17 13 14 15 16 15
Wind_Direction
164 151 264 280 295 289 271 280 312 322 311 292 285 283 277 266 257 245 246 252 251 262
44 17 337 342 311 308 293 287 287 276 273 272 266 263 263 250 257 249 249 249 247 248
27 17 10 18 19 12 8 4 348 333 319 302 290 284 278 268 258 252 252 249 245 250
33 31 32 21 11 4 2 359 352 346 339 336 334 330 331 320 307 302 289 269 257 250
27 23 21 15 9 5 359 354 349 346 345 338 333 332 324 320 313 309 307 344 340 330
25 20 10 7 0 356 352 345 343 351 344 336 333 332 326 314 331 331 307 295 303 308
14 11 1 354 346 340 332 334 333 334 327 324 324 320 314 324 319 315 317 312 305 300
3 356 342 335 332 326 334 333 330 320 326 329 321 319 321 334 336 325 316 309 299 293
355 346 335 330 329 336 329 329 318 323 324 312 316 331 342 337 321 321 311 303 304 301
352 338 334 338 339 328 324 330 332 320 314 320 331 322 333 324 322 314 319 310 309 303
345 335 337 337 324 322 343 331 322 327 332 328 330 329 326 329 324 313 309 305 302 296
338 341 339 329 342 340 331 331 328 335 332 328 323 328 334 325 319 314 308 305 302 292
345 341 324 0 345 333 331 327 338 327 325 321 326 323 328 329 318 312 307 308 305 299
345 329 360 347 336 328 333 332 326 321 320 323 323 323 327 326 321 313 311 306 302 296